Year,Month,Day,Hour,Minute,Value (Times are PST for temperature in C)
2018,08,20,00,00,11.20
2018,08,20,00,01,11.20
2018,08,20,00,02,11.20
2018,08,20,00,03,11.20
2018,08,20,00,04,11.20
2018,08,20,00,05,11.20
2018,08,20,00,06,11.20
2018,08,20,00,07,11.20
2018,08,20,00,08,11.20
2018,08,20,00,09,11.20
2018,08,20,00,10,11.20
2018,08,20,00,11,11.20
2018,08,20,00,12,11.20
2018,08,20,00,13,11.20
2018,08,20,00,14,11.20
2018,08,20,00,15,11.20
2018,08,20,00,16,11.20
2018,08,20,00,17,11.20
2018,08,20,00,18,11.20
2018,08,20,00,19,11.20
2018,08,20,00,20,11.20
2018,08,20,00,21,11.20
2018,08,20,00,22,11.20
2018,08,20,00,23,11.20
2018,08,20,00,24,11.20
2018,08,20,00,25,11.20
2018,08,20,00,26,11.20
2018,08,20,00,27,11.20
2018,08,20,00,28,11.20
2018,08,20,00,29,11.20
2018,08,20,00,30,11.20
2018,08,20,00,31,11.20
2018,08,20,00,32,11.20
2018,08,20,00,33,11.20
2018,08,20,00,34,11.20
2018,08,20,00,35,11.10
2018,08,20,00,36,11.10
2018,08,20,00,37,11.10
2018,08,20,00,38,11.10
2018,08,20,00,39,11.10
2018,08,20,00,40,11.10
2018,08,20,00,41,11.10
2018,08,20,00,42,11.10
2018,08,20,00,43,11.10
2018,08,20,00,44,11.10
2018,08,20,00,45,11.10
2018,08,20,00,46,11.10
2018,08,20,00,47,11.10
2018,08,20,00,48,11.10
2018,08,20,00,49,11.10
2018,08,20,00,50,11.10
2018,08,20,00,51,11.10
2018,08,20,00,52,11.10
2018,08,20,00,53,11.10
2018,08,20,00,54,11.10
2018,08,20,00,55,11.10
2018,08,20,00,56,11.10
2018,08,20,00,57,11.10
2018,08,20,00,58,11.10
2018,08,20,00,59,11.10
2018,08,20,01,00,11.10
2018,08,20,01,01,11.10
2018,08,20,01,02,11.10
2018,08,20,01,03,11.10
2018,08,20,01,04,11.10
2018,08,20,01,05,11.00
2018,08,20,01,06,11.10
2018,08,20,01,07,11.00
2018,08,20,01,08,11.00
2018,08,20,01,09,11.00
2018,08,20,01,10,11.00
2018,08,20,01,11,11.00
2018,08,20,01,12,11.00
2018,08,20,01,13,11.00
2018,08,20,01,14,11.00
2018,08,20,01,15,11.00
2018,08,20,01,16,11.00
2018,08,20,01,17,11.00
2018,08,20,01,18,11.10
2018,08,20,01,19,11.10
2018,08,20,01,20,11.10
2018,08,20,01,21,11.10
2018,08,20,01,22,11.10
2018,08,20,01,23,11.10
2018,08,20,01,24,11.10
2018,08,20,01,25,11.10
2018,08,20,01,26,11.10
2018,08,20,01,27,11.10
2018,08,20,01,28,11.10
2018,08,20,01,29,11.10
2018,08,20,01,30,11.10
2018,08,20,01,31,11.10
2018,08,20,01,32,11.10
2018,08,20,01,33,11.10
2018,08,20,01,34,11.10
2018,08,20,01,35,11.10
2018,08,20,01,36,11.10
2018,08,20,01,37,11.10
2018,08,20,01,38,11.10
2018,08,20,01,39,11.10
2018,08,20,01,40,11.10
2018,08,20,01,41,11.10
2018,08,20,01,42,11.10
2018,08,20,01,43,11.00
2018,08,20,01,44,11.00
2018,08,20,01,45,11.10
2018,08,20,01,46,11.00
2018,08,20,01,47,11.00
2018,08,20,01,48,11.00
2018,08,20,01,49,11.00
2018,08,20,01,50,11.00
2018,08,20,01,51,11.00
2018,08,20,01,52,11.00
2018,08,20,01,53,11.00
2018,08,20,01,54,11.00
2018,08,20,01,55,11.00
2018,08,20,01,56,10.90
2018,08,20,01,57,10.90
2018,08,20,01,58,10.90
2018,08,20,01,59,10.90
2018,08,20,02,00,10.90
2018,08,20,02,01,10.90
2018,08,20,02,02,10.90
2018,08,20,02,03,10.90
2018,08,20,02,04,10.80
2018,08,20,02,05,10.80
2018,08,20,02,06,10.80
2018,08,20,02,07,10.80
2018,08,20,02,08,10.80
2018,08,20,02,09,10.80
2018,08,20,02,10,10.80
2018,08,20,02,11,10.80
2018,08,20,02,12,10.80
2018,08,20,02,13,10.80
2018,08,20,02,14,10.80
2018,08,20,02,15,10.80
2018,08,20,02,16,10.80
2018,08,20,02,17,10.80
2018,08,20,02,18,10.80
2018,08,20,02,19,10.80
2018,08,20,02,20,10.80
2018,08,20,02,21,10.80
2018,08,20,02,22,10.70
2018,08,20,02,23,10.70
2018,08,20,02,24,10.70
2018,08,20,02,25,10.70
2018,08,20,02,26,10.70
2018,08,20,02,27,10.70
2018,08,20,02,28,10.70
2018,08,20,02,29,10.70
2018,08,20,02,30,10.70
2018,08,20,02,31,10.70
2018,08,20,02,32,10.70
2018,08,20,02,33,10.70
2018,08,20,02,34,10.70
2018,08,20,02,35,10.70
2018,08,20,02,36,10.70
2018,08,20,02,37,10.70
2018,08,20,02,38,10.70
2018,08,20,02,39,10.70
2018,08,20,02,40,10.70
2018,08,20,02,41,10.70
2018,08,20,02,42,10.70
2018,08,20,02,43,10.70
2018,08,20,02,44,10.60
2018,08,20,02,45,10.60
2018,08,20,02,46,10.60
2018,08,20,02,47,10.60
2018,08,20,02,48,10.60
2018,08,20,02,49,10.70
2018,08,20,02,50,10.70
2018,08,20,02,51,10.70
2018,08,20,02,52,10.70
2018,08,20,02,53,10.70
2018,08,20,02,54,10.70
2018,08,20,02,55,10.70
2018,08,20,02,56,10.70
2018,08,20,02,57,10.70
2018,08,20,02,58,10.70
2018,08,20,02,59,10.70
2018,08,20,03,00,10.70
2018,08,20,03,01,10.70
2018,08,20,03,02,10.70
2018,08,20,03,03,10.70
2018,08,20,03,04,10.60
2018,08,20,03,05,10.60
2018,08,20,03,06,10.60
2018,08,20,03,07,10.60
2018,08,20,03,08,10.60
2018,08,20,03,09,10.60
2018,08,20,03,10,10.60
2018,08,20,03,11,10.60
2018,08,20,03,12,10.60
2018,08,20,03,13,10.60
2018,08,20,03,14,10.50
2018,08,20,03,15,10.50
2018,08,20,03,16,10.60
2018,08,20,03,17,10.60
2018,08,20,03,18,10.60
2018,08,20,03,19,10.50
2018,08,20,03,20,10.60
2018,08,20,03,21,10.50
2018,08,20,03,22,10.50
2018,08,20,03,23,10.60
2018,08,20,03,24,10.60
2018,08,20,03,25,10.60
2018,08,20,03,26,10.60
2018,08,20,03,27,10.60
2018,08,20,03,28,10.60
2018,08,20,03,29,10.60
2018,08,20,03,30,10.50
2018,08,20,03,31,10.50
2018,08,20,03,32,10.50
2018,08,20,03,33,10.50
2018,08,20,03,34,10.50
2018,08,20,03,35,10.40
2018,08,20,03,36,10.40
2018,08,20,03,37,10.50
2018,08,20,03,38,10.40
2018,08,20,03,39,10.50
2018,08,20,03,40,10.50
2018,08,20,03,41,10.50
2018,08,20,03,42,10.50
2018,08,20,03,43,10.50
2018,08,20,03,44,10.50
2018,08,20,03,45,10.50
2018,08,20,03,46,10.50
2018,08,20,03,47,10.50
2018,08,20,03,48,10.50
2018,08,20,03,49,10.50
2018,08,20,03,50,10.50
2018,08,20,03,51,10.50
2018,08,20,03,52,10.50
2018,08,20,03,53,10.50
2018,08,20,03,54,10.50
2018,08,20,03,55,10.40
2018,08,20,03,56,10.40
2018,08,20,03,57,10.40
2018,08,20,03,58,10.40
2018,08,20,03,59,10.30
2018,08,20,04,00,10.30
2018,08,20,04,01,10.30
2018,08,20,04,02,10.30
2018,08,20,04,03,10.30
2018,08,20,04,04,10.30
2018,08,20,04,05,10.30
2018,08,20,04,06,10.30
2018,08,20,04,07,10.30
2018,08,20,04,08,10.30
2018,08,20,04,09,10.30
2018,08,20,04,10,10.30
2018,08,20,04,11,10.30
2018,08,20,04,12,10.30
2018,08,20,04,13,10.20
2018,08,20,04,14,10.20
2018,08,20,04,15,10.20
2018,08,20,04,16,10.30
2018,08,20,04,17,10.30
2018,08,20,04,18,10.30
2018,08,20,04,19,10.30
2018,08,20,04,20,10.30
2018,08,20,04,21,10.20
2018,08,20,04,22,10.20
2018,08,20,04,23,10.20
2018,08,20,04,24,10.20
2018,08,20,04,25,10.20
2018,08,20,04,26,10.20
2018,08,20,04,27,10.20
2018,08,20,04,28,10.20
2018,08,20,04,29,10.20
2018,08,20,04,30,10.20
2018,08,20,04,31,10.20
2018,08,20,04,32,10.20
2018,08,20,04,33,10.20
2018,08,20,04,34,10.20
2018,08,20,04,35,10.20
2018,08,20,04,36,10.30
2018,08,20,04,37,10.30
2018,08,20,04,38,10.30
2018,08,20,04,39,10.30
2018,08,20,04,40,10.30
2018,08,20,04,41,10.30
2018,08,20,04,42,10.30
2018,08,20,04,43,10.30
2018,08,20,04,44,10.30
2018,08,20,04,45,10.30
2018,08,20,04,46,10.30
2018,08,20,04,47,10.30
2018,08,20,04,48,10.30
2018,08,20,04,49,10.30
2018,08,20,04,50,10.30
2018,08,20,04,51,10.30
2018,08,20,04,52,10.30
2018,08,20,04,53,10.30
2018,08,20,04,54,10.30
2018,08,20,04,55,10.30
2018,08,20,04,56,10.30
2018,08,20,04,57,10.30
2018,08,20,04,58,10.30
2018,08,20,04,59,10.30
2018,08,20,05,00,10.30
2018,08,20,05,01,10.30
2018,08,20,05,02,10.30
2018,08,20,05,03,10.20
2018,08,20,05,04,10.20
2018,08,20,05,05,10.20
2018,08,20,05,06,10.20
2018,08,20,05,07,10.20
2018,08,20,05,08,10.20
2018,08,20,05,09,10.20
2018,08,20,05,10,10.20
2018,08,20,05,11,10.20
2018,08,20,05,12,10.20
2018,08,20,05,13,10.20
2018,08,20,05,14,10.20
2018,08,20,05,15,10.20
2018,08,20,05,16,10.20
2018,08,20,05,17,10.20
2018,08,20,05,18,10.20
2018,08,20,05,19,10.20
2018,08,20,05,20,10.20
2018,08,20,05,21,10.20
2018,08,20,05,22,10.20
2018,08,20,05,23,10.20
2018,08,20,05,24,10.20
2018,08,20,05,25,10.20
2018,08,20,05,26,10.10
2018,08,20,05,27,10.10
2018,08,20,05,28,10.10
2018,08,20,05,29,10.10
2018,08,20,05,30,10.10
2018,08,20,05,31,10.20
2018,08,20,05,32,10.20
2018,08,20,05,33,10.20
2018,08,20,05,34,10.20
2018,08,20,05,35,10.20
2018,08,20,05,36,10.20
2018,08,20,05,37,10.20
2018,08,20,05,38,10.20
2018,08,20,05,39,10.20
2018,08,20,05,40,10.20
2018,08,20,05,41,10.20
2018,08,20,05,42,10.20
2018,08,20,05,43,10.20
2018,08,20,05,44,10.10
2018,08,20,05,45,10.10
2018,08,20,05,46,10.20
2018,08,20,05,47,10.20
2018,08,20,05,48,10.30
2018,08,20,05,49,10.30
2018,08,20,05,50,10.30
2018,08,20,05,51,10.30
2018,08,20,05,52,10.30
2018,08,20,05,53,10.20
2018,08,20,05,54,10.20
2018,08,20,05,55,10.20
2018,08,20,05,56,10.20
2018,08,20,05,57,10.20
2018,08,20,05,58,10.20
2018,08,20,05,59,10.20
2018,08,20,06,00,10.10
2018,08,20,06,01,10.10
2018,08,20,06,02,10.10
2018,08,20,06,03,10.10
2018,08,20,06,04,10.10
2018,08,20,06,05,10.10
2018,08,20,06,06,10.10
2018,08,20,06,07,10.10
2018,08,20,06,08,10.10
2018,08,20,06,09,10.20
2018,08,20,06,10,10.20
2018,08,20,06,11,10.20
2018,08,20,06,12,10.20
2018,08,20,06,13,10.20
2018,08,20,06,14,10.20
2018,08,20,06,15,10.10
2018,08,20,06,16,10.10
2018,08,20,06,17,10.10
2018,08,20,06,18,10.10
2018,08,20,06,19,10.10
2018,08,20,06,20,10.10
2018,08,20,06,21,10.00
2018,08,20,06,22,10.00
2018,08,20,06,23,10.00
2018,08,20,06,24,10.00
2018,08,20,06,25,10.00
2018,08,20,06,26,10.00
2018,08,20,06,27,10.00
2018,08,20,06,28,10.00
2018,08,20,06,29,10.10
2018,08,20,06,30,10.10
2018,08,20,06,31,10.10
2018,08,20,06,32,10.10
2018,08,20,06,33,10.10
2018,08,20,06,34,10.10
2018,08,20,06,35,10.10
2018,08,20,06,36,10.10
2018,08,20,06,37,10.00
2018,08,20,06,38,10.10
2018,08,20,06,39,10.10
2018,08,20,06,40,10.10
2018,08,20,06,41,10.10
2018,08,20,06,42,10.10
2018,08,20,06,43,10.10
2018,08,20,06,44,10.20
2018,08,20,06,45,10.20
2018,08,20,06,46,10.20
2018,08,20,06,47,10.20
2018,08,20,06,48,10.10
2018,08,20,06,49,10.10
2018,08,20,06,50,10.10
2018,08,20,06,51,10.10
2018,08,20,06,52,10.10
2018,08,20,06,53,10.00
2018,08,20,06,54,10.10
2018,08,20,06,55,10.10
2018,08,20,06,56,10.10
2018,08,20,06,57,10.10
2018,08,20,06,58,10.10
2018,08,20,06,59,10.10
2018,08,20,07,00,10.20
2018,08,20,07,01,10.20
2018,08,20,07,02,10.20
2018,08,20,07,03,10.20
2018,08,20,07,04,10.20
2018,08,20,07,05,10.20
2018,08,20,07,06,10.20
2018,08,20,07,07,10.30
2018,08,20,07,08,10.30
2018,08,20,07,09,10.30
2018,08,20,07,10,10.30
2018,08,20,07,11,10.30
2018,08,20,07,12,10.30
2018,08,20,07,13,10.30
2018,08,20,07,14,10.30
2018,08,20,07,15,10.30
2018,08,20,07,16,10.30
2018,08,20,07,17,10.30
2018,08,20,07,18,10.30
2018,08,20,07,19,10.30
2018,08,20,07,20,10.30
2018,08,20,07,21,10.30
2018,08,20,07,22,10.30
2018,08,20,07,23,10.30
2018,08,20,07,24,10.30
2018,08,20,07,25,10.30
2018,08,20,07,26,10.30
2018,08,20,07,27,10.30
2018,08,20,07,28,10.30
2018,08,20,07,29,10.40
2018,08,20,07,30,10.50
2018,08,20,07,31,10.70
2018,08,20,07,32,10.80
2018,08,20,07,33,10.90
2018,08,20,07,34,11.00
2018,08,20,07,35,11.00
2018,08,20,07,36,11.10
2018,08,20,07,37,11.10
2018,08,20,07,38,11.10
2018,08,20,07,39,11.10
2018,08,20,07,40,11.10
2018,08,20,07,41,11.10
2018,08,20,07,42,11.10
2018,08,20,07,43,11.10
2018,08,20,07,44,11.00
2018,08,20,07,45,11.00
2018,08,20,07,46,11.00
2018,08,20,07,47,11.00
2018,08,20,07,48,11.00
2018,08,20,07,49,11.00
2018,08,20,07,50,11.10
2018,08,20,07,51,11.10
2018,08,20,07,52,11.20
2018,08,20,07,53,11.30
2018,08,20,07,54,11.40
2018,08,20,07,55,11.50
2018,08,20,07,56,11.60
2018,08,20,07,57,11.60
2018,08,20,07,58,11.70
2018,08,20,07,59,11.70
2018,08,20,08,00,11.70
2018,08,20,08,01,11.70
2018,08,20,08,02,11.70
2018,08,20,08,03,11.70
2018,08,20,08,04,11.70
2018,08,20,08,05,11.70
2018,08,20,08,06,11.70
2018,08,20,08,07,11.70
2018,08,20,08,08,11.70
2018,08,20,08,09,11.70
2018,08,20,08,10,11.80
2018,08,20,08,11,11.80
2018,08,20,08,12,11.80
2018,08,20,08,13,11.90
2018,08,20,08,14,11.90
2018,08,20,08,15,12.00
2018,08,20,08,16,12.10
2018,08,20,08,17,12.20
2018,08,20,08,18,12.20
2018,08,20,08,19,12.30
2018,08,20,08,20,12.40
2018,08,20,08,21,12.40
2018,08,20,08,22,12.50
2018,08,20,08,23,12.50
2018,08,20,08,24,12.60
2018,08,20,08,25,12.60
2018,08,20,08,26,12.60
2018,08,20,08,27,12.60
2018,08,20,08,28,12.70
2018,08,20,08,29,12.70
2018,08,20,08,30,12.80
2018,08,20,08,31,12.80
2018,08,20,08,32,12.90
2018,08,20,08,33,12.90
2018,08,20,08,34,13.00
2018,08,20,08,35,13.00
2018,08,20,08,36,13.10
2018,08,20,08,37,13.10
2018,08,20,08,38,13.10
2018,08,20,08,39,13.00
2018,08,20,08,40,13.00
2018,08,20,08,41,13.00
2018,08,20,08,42,12.90
2018,08,20,08,43,13.00
2018,08,20,08,44,13.00
2018,08,20,08,45,13.00
2018,08,20,08,46,13.00
2018,08,20,08,47,13.00
2018,08,20,08,48,13.10
2018,08,20,08,49,13.10
2018,08,20,08,50,13.10
2018,08,20,08,51,13.20
2018,08,20,08,52,13.20
2018,08,20,08,53,13.20
2018,08,20,08,54,13.20
2018,08,20,08,55,13.30
2018,08,20,08,56,13.30
2018,08,20,08,57,13.40
2018,08,20,08,58,13.40
2018,08,20,08,59,13.50
2018,08,20,09,00,13.60
2018,08,20,09,01,13.70
2018,08,20,09,02,13.70
2018,08,20,09,03,13.80
2018,08,20,09,04,13.90
2018,08,20,09,05,14.00
2018,08,20,09,06,14.00
2018,08,20,09,07,14.10
2018,08,20,09,08,14.20
2018,08,20,09,09,14.30
2018,08,20,09,10,14.30
2018,08,20,09,11,14.40
2018,08,20,09,12,14.50
2018,08,20,09,13,14.60
2018,08,20,09,14,14.60
2018,08,20,09,15,14.70
2018,08,20,09,16,14.80
2018,08,20,09,17,14.90
2018,08,20,09,18,14.90
2018,08,20,09,19,15.00
2018,08,20,09,20,15.10
2018,08,20,09,21,15.20
2018,08,20,09,22,15.30
2018,08,20,09,23,15.40
2018,08,20,09,24,15.50
2018,08,20,09,25,15.50
2018,08,20,09,26,15.60
2018,08,20,09,27,15.60
2018,08,20,09,28,15.70
2018,08,20,09,29,15.80
2018,08,20,09,30,15.80
2018,08,20,09,31,15.90
2018,08,20,09,32,16.00
2018,08,20,09,33,16.10
2018,08,20,09,34,16.10
2018,08,20,09,35,16.20
2018,08,20,09,36,16.20
2018,08,20,09,37,16.20
2018,08,20,09,38,16.30
2018,08,20,09,39,16.40
2018,08,20,09,40,16.40
2018,08,20,09,41,16.50
2018,08,20,09,42,16.60
2018,08,20,09,43,16.70
2018,08,20,09,44,16.80
2018,08,20,09,45,16.80
2018,08,20,09,46,16.90
2018,08,20,09,47,17.00
2018,08,20,09,48,17.10
2018,08,20,09,49,17.20
2018,08,20,09,50,17.20
2018,08,20,09,51,17.30
2018,08,20,09,52,17.40
2018,08,20,09,53,17.40
2018,08,20,09,54,17.50
2018,08,20,09,55,17.60
2018,08,20,09,56,17.60
2018,08,20,09,57,17.70
2018,08,20,09,58,17.70
2018,08,20,09,59,17.80
2018,08,20,10,00,17.90
2018,08,20,10,01,17.90
2018,08,20,10,02,17.90
2018,08,20,10,03,18.00
2018,08,20,10,04,18.00
2018,08,20,10,05,18.10
2018,08,20,10,06,18.20
2018,08,20,10,07,18.20
2018,08,20,10,08,18.30
2018,08,20,10,09,18.40
2018,08,20,10,10,18.50
2018,08,20,10,11,18.50
2018,08,20,10,12,18.60
2018,08,20,10,13,18.70
2018,08,20,10,14,18.80
2018,08,20,10,15,18.90
2018,08,20,10,16,19.00
2018,08,20,10,17,19.10
2018,08,20,10,18,19.20
2018,08,20,10,19,19.20
2018,08,20,10,20,19.30
2018,08,20,10,21,19.30
2018,08,20,10,22,19.30
2018,08,20,10,23,19.30
2018,08,20,10,24,19.30
2018,08,20,10,25,19.40
2018,08,20,10,26,19.40
2018,08,20,10,27,19.50
2018,08,20,10,28,19.50
2018,08,20,10,29,19.60
2018,08,20,10,30,19.70
2018,08,20,10,31,19.80
2018,08,20,10,32,19.90
2018,08,20,10,33,20.00
2018,08,20,10,34,20.00
2018,08,20,10,35,20.00
2018,08,20,10,36,20.10
2018,08,20,10,37,20.10
2018,08,20,10,38,20.00
2018,08,20,10,39,20.00
2018,08,20,10,40,20.00
2018,08,20,10,41,20.10
2018,08,20,10,42,20.10
2018,08,20,10,43,20.20
2018,08,20,10,44,20.20
2018,08,20,10,45,20.20
2018,08,20,10,46,20.20
2018,08,20,10,47,20.20
2018,08,20,10,48,20.20
2018,08,20,10,49,20.30
2018,08,20,10,50,20.30
2018,08,20,10,51,20.40
2018,08,20,10,52,20.40
2018,08,20,10,53,20.40
2018,08,20,10,54,20.40
2018,08,20,10,55,20.30
2018,08,20,10,56,20.30
2018,08,20,10,57,20.30
2018,08,20,10,58,20.30
2018,08,20,10,59,20.10
2018,08,20,11,00,20.10
2018,08,20,11,01,20.10
2018,08,20,11,02,20.10
2018,08,20,11,03,20.00
2018,08,20,11,04,20.00
2018,08,20,11,05,19.90
2018,08,20,11,06,19.90
2018,08,20,11,07,19.90
2018,08,20,11,08,19.90
2018,08,20,11,09,19.90
2018,08,20,11,10,19.90
2018,08,20,11,11,19.90
2018,08,20,11,12,20.00
2018,08,20,11,13,20.00
2018,08,20,11,14,20.10
2018,08,20,11,15,20.20
2018,08,20,11,16,20.30
2018,08,20,11,17,20.40
2018,08,20,11,18,20.50
2018,08,20,11,19,20.60
2018,08,20,11,20,20.70
2018,08,20,11,21,20.90
2018,08,20,11,22,21.00
2018,08,20,11,23,21.10
2018,08,20,11,24,21.20
2018,08,20,11,25,21.20
2018,08,20,11,26,21.30
2018,08,20,11,27,21.30
2018,08,20,11,28,21.40
2018,08,20,11,29,21.50
2018,08,20,11,30,21.60
2018,08,20,11,31,21.60
2018,08,20,11,32,21.60
2018,08,20,11,33,21.50
2018,08,20,11,34,21.50
2018,08,20,11,35,21.40
2018,08,20,11,36,21.40
2018,08,20,11,37,21.50
2018,08,20,11,38,21.60
2018,08,20,11,39,21.60
2018,08,20,11,40,21.70
2018,08,20,11,41,21.80
2018,08,20,11,42,21.90
2018,08,20,11,43,22.00
2018,08,20,11,44,22.00
2018,08,20,11,45,22.10
2018,08,20,11,46,22.20
2018,08,20,11,47,22.10
2018,08,20,11,48,22.20
2018,08,20,11,49,22.20
2018,08,20,11,50,22.30
2018,08,20,11,51,22.40
2018,08,20,11,52,22.50
2018,08,20,11,53,22.60
2018,08,20,11,54,22.60
2018,08,20,11,55,22.60
2018,08,20,11,56,22.60
2018,08,20,11,57,22.60
2018,08,20,11,58,22.70
2018,08,20,11,59,22.70
2018,08,20,12,00,22.70
2018,08,20,12,01,22.80
2018,08,20,12,02,22.80
2018,08,20,12,03,22.80
2018,08,20,12,04,22.90
2018,08,20,12,05,22.90
2018,08,20,12,06,23.00
2018,08,20,12,07,23.00
2018,08,20,12,08,23.10
2018,08,20,12,09,23.10
2018,08,20,12,10,23.10
2018,08,20,12,11,23.20
2018,08,20,12,12,23.30
2018,08,20,12,13,23.40
2018,08,20,12,14,23.50
2018,08,20,12,15,23.50
2018,08,20,12,16,23.60
2018,08,20,12,17,23.70
2018,08,20,12,18,23.70
2018,08,20,12,19,23.80
2018,08,20,12,20,23.90
2018,08,20,12,21,24.00
2018,08,20,12,22,24.00
2018,08,20,12,23,24.10
2018,08,20,12,24,24.20
2018,08,20,12,25,24.30
2018,08,20,12,26,24.40
2018,08,20,12,27,24.50
2018,08,20,12,28,24.60
2018,08,20,12,29,24.70
2018,08,20,12,30,24.90
2018,08,20,12,31,25.00
2018,08,20,12,32,25.10
2018,08,20,12,33,25.20
2018,08,20,12,34,25.20
2018,08,20,12,35,25.30
2018,08,20,12,36,25.30
2018,08,20,12,37,25.30
2018,08,20,12,38,25.30
2018,08,20,12,39,25.30
2018,08,20,12,40,25.30
2018,08,20,12,41,25.30
2018,08,20,12,42,25.30
2018,08,20,12,43,25.30
2018,08,20,12,44,25.30
2018,08,20,12,45,25.30
2018,08,20,12,46,25.40
2018,08,20,12,47,25.40
2018,08,20,12,48,25.20
2018,08,20,12,49,25.10
2018,08,20,12,50,25.10
2018,08,20,12,51,25.00
2018,08,20,12,52,24.90
2018,08,20,12,53,24.90
2018,08,20,12,54,24.90
2018,08,20,12,55,24.90
2018,08,20,12,56,24.80
2018,08,20,12,57,24.70
2018,08,20,12,58,24.70
2018,08,20,12,59,24.50
2018,08,20,13,00,24.50
2018,08,20,13,01,24.40
2018,08,20,13,02,24.50
2018,08,20,13,03,24.60
2018,08,20,13,04,24.70
2018,08,20,13,05,24.80
2018,08,20,13,06,24.90
2018,08,20,13,07,25.00
2018,08,20,13,08,25.30
2018,08,20,13,09,25.50
2018,08,20,13,10,25.60
2018,08,20,13,11,25.70
2018,08,20,13,12,25.80
2018,08,20,13,13,25.90
2018,08,20,13,14,25.90
2018,08,20,13,15,25.90
2018,08,20,13,16,25.80
2018,08,20,13,17,25.70
2018,08,20,13,18,25.60
2018,08,20,13,19,25.60
2018,08,20,13,20,25.60
2018,08,20,13,21,25.50
2018,08,20,13,22,25.30
2018,08,20,13,23,25.00
2018,08,20,13,24,24.80
2018,08,20,13,25,24.60
2018,08,20,13,26,24.60
2018,08,20,13,27,24.60
2018,08,20,13,28,24.60
2018,08,20,13,29,24.60
2018,08,20,13,30,24.60
2018,08,20,13,31,24.60
2018,08,20,13,32,24.60
2018,08,20,13,33,24.50
2018,08,20,13,34,24.50
2018,08,20,13,35,24.40
2018,08,20,13,36,24.40
2018,08,20,13,37,24.30
2018,08,20,13,38,24.20
2018,08,20,13,39,24.20
2018,08,20,13,40,24.20
2018,08,20,13,41,24.10
2018,08,20,13,42,24.10
2018,08,20,13,43,24.00
2018,08,20,13,44,24.00
2018,08,20,13,45,24.00
2018,08,20,13,46,23.90
2018,08,20,13,47,23.90
2018,08,20,13,48,23.90
2018,08,20,13,49,23.80
2018,08,20,13,50,23.80
2018,08,20,13,51,23.80
2018,08,20,13,52,23.90
2018,08,20,13,53,24.00
2018,08,20,13,54,24.00
2018,08,20,13,55,24.10
2018,08,20,13,56,24.10
2018,08,20,13,57,24.20
2018,08,20,13,58,24.20
2018,08,20,13,59,24.20
2018,08,20,14,00,24.20
2018,08,20,14,01,24.10
2018,08,20,14,02,24.00
2018,08,20,14,03,24.00
2018,08,20,14,04,23.90
2018,08,20,14,05,23.90
2018,08,20,14,06,24.00
2018,08,20,14,07,24.00
2018,08,20,14,08,24.10
2018,08,20,14,09,24.10
2018,08,20,14,10,24.20
2018,08,20,14,11,24.20
2018,08,20,14,12,24.40
2018,08,20,14,13,24.50
2018,08,20,14,14,24.60
2018,08,20,14,15,24.70
2018,08,20,14,16,24.70
2018,08,20,14,17,24.70
2018,08,20,14,18,24.80
2018,08,20,14,19,24.80
2018,08,20,14,20,24.80
2018,08,20,14,21,24.70
2018,08,20,14,22,24.60
2018,08,20,14,23,24.60
2018,08,20,14,24,24.60
2018,08,20,14,25,24.60
2018,08,20,14,26,24.70
2018,08,20,14,27,24.80
2018,08,20,14,28,24.90
2018,08,20,14,29,25.00
2018,08,20,14,30,25.10
2018,08,20,14,31,25.20
2018,08,20,14,32,25.30
2018,08,20,14,33,25.20
2018,08,20,14,34,25.20
2018,08,20,14,35,25.10
2018,08,20,14,36,25.10
2018,08,20,14,37,25.00
2018,08,20,14,38,25.00
2018,08,20,14,39,24.90
2018,08,20,14,40,24.90
2018,08,20,14,41,24.90
2018,08,20,14,42,24.90
2018,08,20,14,43,25.00
2018,08,20,14,44,25.10
2018,08,20,14,45,25.10
2018,08,20,14,46,25.10
2018,08,20,14,47,25.20
2018,08,20,14,48,25.20
2018,08,20,14,49,25.20
2018,08,20,14,50,25.30
2018,08,20,14,51,25.40
2018,08,20,14,52,25.50
2018,08,20,14,53,25.60
2018,08,20,14,54,25.80
2018,08,20,14,55,25.90
2018,08,20,14,56,26.00
2018,08,20,14,57,26.10
2018,08,20,14,58,26.20
2018,08,20,14,59,26.30
2018,08,20,15,00,26.30
2018,08,20,15,01,26.40
2018,08,20,15,02,26.50
2018,08,20,15,03,26.50
2018,08,20,15,04,26.60
2018,08,20,15,05,26.70
2018,08,20,15,06,26.80
2018,08,20,15,07,26.80
2018,08,20,15,08,26.80
2018,08,20,15,09,26.80
2018,08,20,15,10,26.80
2018,08,20,15,11,26.80
2018,08,20,15,12,26.80
2018,08,20,15,13,26.80
2018,08,20,15,14,26.80
2018,08,20,15,15,26.70
2018,08,20,15,16,26.70
2018,08,20,15,17,26.60
2018,08,20,15,18,26.60
2018,08,20,15,19,26.60
2018,08,20,15,20,26.70
2018,08,20,15,21,26.80
2018,08,20,15,22,26.90
2018,08,20,15,23,26.90
2018,08,20,15,24,26.90
2018,08,20,15,25,26.80
2018,08,20,15,26,26.80
2018,08,20,15,27,26.80
2018,08,20,15,28,26.90
2018,08,20,15,29,27.00
2018,08,20,15,30,27.10
2018,08,20,15,31,27.20
2018,08,20,15,32,27.30
2018,08,20,15,33,27.30
2018,08,20,15,34,27.10
2018,08,20,15,35,27.00
2018,08,20,15,36,26.80
2018,08,20,15,37,26.70
2018,08,20,15,38,26.70
2018,08,20,15,39,26.70
2018,08,20,15,40,26.70
2018,08,20,15,41,26.70
2018,08,20,15,42,26.60
2018,08,20,15,43,26.50
2018,08,20,15,44,26.50
2018,08,20,15,45,26.50
2018,08,20,15,46,26.60
2018,08,20,15,47,26.50
2018,08,20,15,48,26.50
2018,08,20,15,49,26.50
2018,08,20,15,50,26.40
2018,08,20,15,51,26.40
2018,08,20,15,52,26.40
2018,08,20,15,53,26.50
2018,08,20,15,54,26.50
2018,08,20,15,55,26.50
2018,08,20,15,56,26.60
2018,08,20,15,57,26.60
2018,08,20,15,58,26.60
2018,08,20,15,59,26.60
2018,08,20,16,00,26.70
2018,08,20,16,01,26.60
2018,08,20,16,02,26.60
2018,08,20,16,03,26.50
2018,08,20,16,04,26.50
2018,08,20,16,05,26.50
2018,08,20,16,06,26.60
2018,08,20,16,07,26.60
2018,08,20,16,08,26.70
2018,08,20,16,09,26.80
2018,08,20,16,10,26.80
2018,08,20,16,11,26.90
2018,08,20,16,12,26.90
2018,08,20,16,13,27.00
2018,08,20,16,14,27.00
2018,08,20,16,15,27.00
2018,08,20,16,16,27.10
2018,08,20,16,17,27.10
2018,08,20,16,18,27.10
2018,08,20,16,19,27.20
2018,08,20,16,20,27.20
2018,08,20,16,21,27.20
2018,08,20,16,22,27.30
2018,08,20,16,23,27.40
2018,08,20,16,24,27.50
2018,08,20,16,25,27.60
2018,08,20,16,26,27.80
2018,08,20,16,27,27.90
2018,08,20,16,28,28.00
2018,08,20,16,29,28.00
2018,08,20,16,30,28.00
2018,08,20,16,31,27.90
2018,08,20,16,32,27.80
2018,08,20,16,33,27.70
2018,08,20,16,34,27.60
2018,08,20,16,35,27.50
2018,08,20,16,36,27.40
2018,08,20,16,37,27.40
2018,08,20,16,38,27.40
2018,08,20,16,39,27.40
2018,08,20,16,40,27.40
2018,08,20,16,41,27.40
2018,08,20,16,42,27.30
2018,08,20,16,43,27.20
2018,08,20,16,44,27.10
2018,08,20,16,45,27.00
2018,08,20,16,46,26.90
2018,08,20,16,47,26.80
2018,08,20,16,48,26.80
2018,08,20,16,49,26.70
2018,08,20,16,50,26.70
2018,08,20,16,51,26.60
2018,08,20,16,52,26.50
2018,08,20,16,53,26.40
2018,08,20,16,54,26.30
2018,08,20,16,55,26.30
2018,08,20,16,56,26.20
2018,08,20,16,57,26.10
2018,08,20,16,58,26.20
2018,08,20,16,59,26.20
2018,08,20,17,00,26.20
2018,08,20,17,01,26.30
2018,08,20,17,02,26.30
2018,08,20,17,03,26.40
2018,08,20,17,04,26.40
2018,08,20,17,05,26.40
2018,08,20,17,06,26.40
2018,08,20,17,07,26.40
2018,08,20,17,08,26.30
2018,08,20,17,09,26.40
2018,08,20,17,10,26.30
2018,08,20,17,11,26.10
2018,08,20,17,12,26.00
2018,08,20,17,13,25.80
2018,08,20,17,14,25.70
2018,08,20,17,15,25.50
2018,08,20,17,16,25.40
2018,08,20,17,17,25.40
2018,08,20,17,18,25.40
2018,08,20,17,19,25.30